Flag for Austria Weather past 2 weeks in Judenburg, Styria, Austria

Now
14 °F

Light freezing rain. Partly sunny.


Feels Like: 14 °F
Forecast: 15 / 33 °F
Wind: 1 mph from North

Location: Zeltweg

Current Time: Feb 1, 2015 at 8:36:08 AM

Latest Report: Feb 1, 2015 at 7:50 AM


Visibility: 1 mi

Pressure: 29.24 "Hg

Humidity: 85%

Dew point: 10 °F

Location of JudenburgLocation

Historic Weather in Judenburg — Graph

°F

Judenburg temperature yesterday

Maximum temperature yesterday: 30 °F (at 2:50 PM)
Minimum temperature yesterday: 3 °F (at 7:50 AM)
Average temperature yesterday: 16 °F

Past Weeks' High & Low Weather Summary

 TemperatureHumidityPressure
High48 °F (Jan 17, 6:50 AM)100% (Jan 17, 2:50 PM)30.21 "Hg (Jan 17, 2:50 PM)
Low3 °F (Jan 31, 7:50 AM)39% (Jan 28, 1:50 PM)28.77 "Hg (Jan 30, 1:50 PM)
Average32 °F81%29.79 "Hg
* Reported Jan 17 6:50 AM — Feb 1 6:50 AM, Judenburg, Weather by CustomWeather, © 2014

Note: Actual official high and low records may vary slightly from our data, if they occured in-between our weather recording intervals... More about our weather records

Advertising

Judenburg weather history for previous 24 hours

 ConditionsComfort  
Time TempWeatherWind HumidityBarometerVisibility
6:50 AM
Feb 1
10 °FLight freezing rain. Passing clouds.2 mph100%29.21 "Hg2 mi
5:50 AM10 °FLight freezing rain. Passing clouds.1 mph92%29.21 "Hg1 mi
4:50 AM10 °FIce fog.3 mph92%29.18 "Hg1 mi
3:50 AM10 °FPassing clouds.3 mph100%29.47 "Hg5 mi
9:50 PM
Jan 31
14 °FPartly cloudy.6 mph100%29.47 "Hg9 mi
8:50 PM14 °FPassing clouds.5 mph100%29.15 "Hg9 mi
7:50 PM16 °FPassing clouds.2 mph86%29.15 "Hg9 mi
6:50 PM14 °FPassing clouds.5 mph92%29.12 "Hg9 mi
5:50 PMN/APassing clouds.2 mphN/AN/A9 mi
4:50 PM25 °FPartly sunny.2 mph80%29.09 "Hg25 mi
3:50 PM28 °FPassing clouds.2 mph69%29.09 "Hg25 mi
2:50 PM30 °FPassing clouds.1 mph69%29.06 "Hg25 mi
1:50 PM28 °FScattered clouds.1 mph69%29.06 "Hg25 mi
12:50 PM27 °FPassing clouds.2 mph74%29.06 "Hg25 mi
11:50 AM21 °FPassing clouds.3 mph100%29.06 "Hg25 mi
10:50 AM19 °FPassing clouds.2 mph86%29.09 "Hg25 mi
9:50 AM12 °FPassing clouds.2 mph100%29.06 "Hg25 mi
8:50 AM9 °FFrigid.1 mph92%29.06 "Hg12 mi
Weather by CustomWeather, © 2014

See weather overviewHow to use our weather pages